Weather History for CYBW - December, 2013

Change the Weather History Date:

Wednesday, December 25, 2013

  Actual Average Record
Temperature  
Mean Temperature 23 °F -  
Max Temperature 41 °F 25 °F 55 °F (2005)
Min Temperature 5 °F 6 °F -23 °F (1996)
Degree Days  
Heating Degree Days 42    
Moisture  
Dew Point 19 °F    
Average Humidity 61    
Maximum Humidity 92    
Minimum Humidity 39    
Precipitation  
Precipitation 0.00 in - - ()
Sea Level Pressure  
Sea Level Pressure 30.17 in    
Wind  
Wind Speed 11 mph ()    
Max Wind Speed 31 mph    
Max Gust Speed 41 mph    
Visibility 15.0 miles    
Events Snow    
Averages and records for this station are not official NWS values.
T = Trace of Precipitation, MM = Missing Value Source: Averaged Metar Reports

Daily Weather History Graph

Daily Weather History Graph

Search for Another Location

Airport or City:

Trip Planner

Search our weather history database for the weather conditions in past years. The results will help you decide how hot, cold, wet, or windy it might be!

Date:

Astronomy

Dec. 25, 2013 Rise Set
Actual Time 8:40 AM MST 4:35 PM MST
Civil Twilight 8:00 AM MST 5:14 PM MST
Nautical Twilight 7:18 AM MST 5:57 PM MST
Astronomical Twilight 6:37 AM MST 6:38 PM MST
Moon 12:34 AM MST (12/25) 12:15 PM MST (12/25)
Length of Visible Light 9h 14m
Length of Day
7h 54m
Waning Gibbous, 48% of the Moon is Illuminated
Dec 25
Waning Gibbous
Jan 1
New
Jan 7
First Quarter
Jan 15
Full
Jan 23
Last Quarter

Hourly Weather History & Observations

Time (MST) Temp. Windchill Dew Point Humidity Pressure Visibility Wind Dir Wind Speed Gust Speed Precip Events Conditions
5:00 AM 10 °F - 8 °F 89% 30.35 in 15 mi WNW 3.5 mph - -  
5:00 AM 10.4 °F 4.0 °F 8.6 °F 92% 30.35 in 15.0 mi WNW 3.5 mph - N/A   Clear
6:00 AM 12.2 °F 1.7 °F 6.8 °F 79% 30.33 in 15.0 mi SSW 6.9 mph - N/A   Partly Cloudy
7:00 AM 5.0 °F -2.1 °F 1.4 °F 85% 30.32 in 15.0 mi West 3.5 mph - N/A   Mostly Cloudy
7:19 AM 10.4 °F - 6.8 °F 85% 30.31 in 15.0 mi Variable 2.3 mph - N/A   Scattered Clouds
8:00 AM 12.2 °F - 8.6 °F 85% 30.27 in 30.0 mi Variable 2.3 mph - N/A   Scattered Clouds
9:00 AM 17.6 °F 12.3 °F 10.4 °F 73% 30.25 in 30.0 mi NW 3.5 mph - N/A   Mostly Cloudy
10:00 AM 33.8 °F 27.7 °F 17.6 °F 52% 30.19 in 30.0 mi WNW 6.9 mph - N/A   Mostly Cloudy
10:40 AM 35.6 °F 26.6 °F 21.2 °F 56% 30.17 in 30.0 mi WNW 13.8 mph - N/A   Mostly Cloudy
11:00 AM 37 °F - 21 °F 40% 30.15 in 28 mi West 20.7 mph - -   Scattered Clouds
11:00 AM 37.4 °F 27.5 °F 21.2 °F 52% 30.15 in 30.0 mi West 18.4 mph 25.3 mph N/A   Mostly Cloudy
11:30 AM 39.2 °F 27.6 °F 24.8 °F 56% 30.13 in 30.0 mi West 28.8 mph - N/A   Unknown
12:00 PM 39.2 °F 30.2 °F 24.8 °F 56% 30.13 in 30.0 mi WNW 17.3 mph 25.3 mph N/A   Unknown
12:15 PM 35.6 °F 27.5 °F 24.8 °F 65% 30.15 in 30.0 mi WNW 11.5 mph 18.4 mph N/A   Mostly Cloudy
1:00 PM 39.2 °F 30.2 °F 23.0 °F 52% 30.11 in 30.0 mi West 17.3 mph - N/A   Mostly Cloudy
2:00 PM 39.2 °F 29.0 °F 23.0 °F 52% 30.06 in 30.0 mi West 21.9 mph - N/A   Mostly Cloudy
3:00 PM 39.2 °F 29.0 °F 24.8 °F 56% 30.04 in 30.0 mi West 21.9 mph 28.8 mph N/A   Mostly Cloudy
4:00 PM 41.0 °F 29.8 °F 23.0 °F 49% 30.07 in 30.0 mi West 29.9 mph 35.7 mph N/A   Mostly Cloudy
5:00 PM 40 °F - 24 °F 39% 30.07 in 28 mi West 29.9 mph - -   Scattered Clouds
5:00 PM 41.0 °F 29.7 °F 23.0 °F 49% 30.06 in 30.0 mi West 31.1 mph 40.3 mph N/A   Mostly Cloudy
6:00 PM 37.4 °F 25.4 °F 24.8 °F 60% 30.08 in 15.0 mi West 27.6 mph 41.4 mph N/A   Partly Cloudy
7:00 PM 37.4 °F 25.6 °F 23.0 °F 56% 30.12 in 15.0 mi West 26.5 mph - N/A Snow Low Drifting Snow
8:00 PM 37.4 °F 27.2 °F 21.2 °F 52% 30.13 in 15.0 mi West 19.6 mph 26.5 mph N/A   Clear
8:06 PM 35.6 °F 25.2 °F 21.2 °F 56% 30.13 in 15.0 mi West 18.4 mph - N/A   Clear
9:00 PM 35.6 °F 24.5 °F 21.2 °F 56% 30.13 in 15.0 mi West 20.7 mph 26.5 mph N/A   Clear
10:00 PM 37.4 °F 25.9 °F 23.0 °F 56% 30.10 in 15.0 mi West 25.3 mph - N/A   Clear